This is the latest recevied weather packets stored in our database for station/object XQ6AK-15. If no packets are shown the sender has not sent any weather packets the latest 10 day(s).
| Time | Temp. | Humidity | Pressure | Rain* | Wind** | Luminosity | Snow |
|---|---|---|---|---|---|---|---|
| 1787834927 | 9.44° C | 99% | 1004.3 hPa | 0 mm | - | 29 W/m² | - |
| 1787834626 | 9.44° C | 99% | 1004.3 hPa | 0 mm | - | 26 W/m² | - |
| 1787834321 | 9.44° C | 99% | 1004.3 hPa | 0 mm | - | 29 W/m² | - |
| 1787834017 | 9.44° C | 99% | 1004.2 hPa | 0 mm | - | 36 W/m² | - |
| 1787833712 | 9.44° C | 99% | 1004.2 hPa | 0 mm | - | 42 W/m² | - |
| 1787833407 | 8.89° C | 99% | 1004.2 hPa | 0 mm | - | 41 W/m² | - |
| 1787833104 | 8.89° C | 99% | 1004.3 hPa | 0 mm | - | 27 W/m² | - |
| 1787832799 | 8.89° C | 99% | 1004.2 hPa | 0 mm | - | 25 W/m² | - |
| 1787832494 | 8.89° C | 99% | 1004.3 hPa | 0 mm | - | 26 W/m² | - |
| 1787832193 | 8.89° C | 99% | 1004.3 hPa | 0 mm | - | 27 W/m² | - |
| 1787831551 | 8.89° C | 99% | 1004.2 hPa | 0 mm | - | 8 W/m² | - |
| 1787831250 | 8.89° C | 99% | 1004.2 hPa | 0 mm | - | 8 W/m² | - |
| 1787830946 | 8.89° C | 99% | 1004.2 hPa | 0 mm | - | 7 W/m² | - |
| 1787830645 | 8.33° C | 99% | 1004.3 hPa | 0 mm | - | 3 W/m² | - |
| 1787830339 | 8.33° C | 99% | 1004.2 hPa | 0 mm | - | 2 W/m² | - |
| 1787830034 | 8.33° C | 99% | 1004.4 hPa | 0 mm | - | 2 W/m² | - |
| 1787829734 | 8.33° C | 99% | 1004.5 hPa | 0 mm | - | 0 W/m² | - |
| 1787829428 | 8.89° C | 99% | 1004.6 hPa | 0 mm | - | 0 W/m² | - |
| 1787829119 | 8.33° C | 99% | 1004.3 hPa | 0 mm | - | 0 W/m² | - |
| 1787828813 | 8.33° C | 99% | 1004.3 hPa | 0 mm | - | 0 W/m² | - |
| 1787828511 | 8.33° C | 99% | 1004.5 hPa | 0 mm | - | 0 W/m² | - |
| 1787828209 | 8.89° C | 99% | 1004.3 hPa | 0 mm | - | 0 W/m² | - |
| 1787827909 | 8.33° C | 99% | 1004.4 hPa | 0 mm | - | 0 W/m² | - |
| 1787827604 | 8.89° C | 99% | 1004.5 hPa | 0 mm | - | 0 W/m² | - |
| 1787827304 | 8.89° C | 99% | 1004.5 hPa | 0 mm | - | 0 W/m² | - |
* Rain latest hour (hover to see other rain measurements)
** Current wind speed in m/s (hover to see current wind gust speed)